Starlink 1587

operational
NORAD ID: 46157 Int'l Des: 2020-057 Owner: SPXS Country: US Constellation: starlink
LEOCIRCULAR

About Starlink 1587

Description loading...

Live Position

Loading 3D Globe...

Upcoming Passes

Altitude History

Altitude vs Time

uPlot chart will show altitude changes over time

Two-Line Element Set

1 46157U 20057AS 26063.00001157 .00460291 91832-4 14399-2 0 9995
2 46157 53.0322 245.4501 0003505 252.6502 235.3811 15.90952819 5991
Epoch: Mar 4, 2026 • Age: 4 hours

Current Status

Altitude 305.1 km
Velocity 7.73 km/s
Sub-Earth Point -22.48°S, 6.64°E
Launch Date Aug 18, 2020
Age 5.5 years
Type internet

Technical Details

Classification Payload
Mass 260.00 kg
Dry Mass 248.00 kg
Total Mass 260.00 kg
Length 0.20 m
Diameter 2.80 m
Span 9.00 m
Shape Box + pan
Manufacturer SPXS
Bus Type Starlink
Phase Status In Orbit
Owner/State SPXS/US

Large Constellations

Loading constellations...